sat.trackr.live / text

‹ back to catalog

STARLINK-11493 [DTC]

NORAD 62410 · 2024-249B

PAYLOAD ACTIVE UNKNOWN

§ Identity

Operator
Country
US
Launch date
2024-12-23
Launch site
AFETR
Launch vehicle
Mass (kg)
RCS (m²)

Purposes: comms

External: N2YO · Heavens-Above · Gunter

§ Orbital elements

Epoch: 2026-05-25T03:55:17.681376Z

Period
91.66 min
Inclination
43.0014°
Eccentricity
0.0008034
Mean motion
15.71056775 rev/d
Perigee alt
350.5 km
Apogee alt
361.3 km
Semi-major
6,734.0 km
B*
2.0152e-3
RAAN
67.0843°
Arg perigee
244.2670°
Mean anomaly
115.7369°
Rev number
8,150

§ Raw data

STARLINK-11493 [DTC]1 62410U 24249B   26145.16339909  .00269470  00000+0  20152-2 0  99912 62410  43.0014  67.0843 0008034 244.2670 115.7369 15.71056775 81505

JSON: /api/v1/satellites/62410 · /tle

For live sub-satellite position, see the globe view (requires WebGL).

§ Visibility from observer

Set your observer location to see the next 7 days of passes ≥ 10°. The values pass through the URL so the page stays shareable.

No JS? Fill the form by hand. The geolocation button needs JavaScript.